Zurück zum Katalog

STARLINK-35773

AktivKommunikationVLEO
NORAD 67042·PAYLOAD·🇺🇸 United States

Gestartet Dec 11, 2025 von Cape Canaveral Space Force Station

Loading…

Nächste Überflüge (nächste 24 Stunden)

TLE

AktuellSource: CelesTrak SupGP

Epoche: Sep 14, 2026, 22:39 UTC

1 67042C 25294N   26257.94423611  .00049711  00000+0  17978-2 0  2575
2 67042  43.0043  49.2914 0002007 283.6201  52.2817 15.27602072    13

Verfolge STARLINK-35773 in Echtzeit mit AllMySat

Download on the App Store